User: anonymous   Login
Location: Bijele Vode
(45.2833°N, 16.2000°E)
Time: 19:55:31
(UTC+00:00)
Language:

Okean 1 Rocket - Orbit

View from above orbital plane
View from above orbital plane
View from above satellite
View from above satellite

Ground track
Ground track

The orbit data is extracted from the following two-line orbital elements,

1 19275U 88056B   21169.58370093  .00000080  00000-0  68359-5 0  9999
2 19275  82.5165  42.2386 0021529  71.1267 289.2279 14.82794377758877
Epoch (UTC): 18 June 2021 14:00:31
Eccentricity: 0.0021529
inclination: 82.5165°
perigee height: 605 km
apogee height: 635 km
right ascension of ascending node: 42.2386°
argument of perigee: 71.1267°
revolutions per day: 14.82794377
mean anomaly at epoch: 289.2279°
orbit number at epoch: 75887

The dashed part of the orbit path shows where the satellite is in the earth's shadow,  

DLR